, AK

(GMT )
Deadhorse

Weather History for PASC - January, 2014

Change the Weather History Date:

Friday, January 24, 2014

  Actual Average Record
Temperature  
Mean Temperature -1 °F -  
Max Temperature 0 °F -8 °F 23 °F (1999)
Min Temperature -2 °F -21 °F -48 °F (1989)
Degree Days  
Heating Degree Days 66    
Moisture  
Dew Point -6 °F    
Average Humidity 81    
Maximum Humidity 83    
Minimum Humidity 78    
Precipitation  
Precipitation 0.00 in - - ()
Sea Level Pressure  
Sea Level Pressure 29.97 in    
Wind  
Wind Speed 25 mph (ENE)    
Max Wind Speed 29 mph    
Max Gust Speed 34 mph    
Visibility 3 miles    
Events Fog , Snow    
Averages and records for this station are not official NWS values.
T = Trace of Precipitation, MM = Missing Value Source: NWS Daily Summary

Daily Weather History Graph

Daily Weather History Graph

Search for Another Location

Airport or City:

Astronomy

Jan. 24, 2014 Rise Set
Actual Time 11:30 AM AKST 2:42 PM AKST
Civil Twilight 9:43 AM AKST 4:29 PM AKST
Nautical Twilight 8:18 AM AKST 5:54 PM AKST
Astronomical Twilight 7:05 AM AKST 7:08 PM AKST
Moon 3:58 AM AKST (1/24) 10:07 AM AKST (1/24)
Length of Visible Light 6h 46m
Length of Day
3h 12m
Last Quarter, 43% of the Moon is Illuminated
Jan 24
Last Quarter
Jan 30
New
Feb 6
First Quarter
Feb 14
Full
Feb 22
Last Quarter

Hourly Weather History & Observations

Time (AKST) Temp. Windchill Dew Point Humidity Pressure Visibility Wind Dir Wind Speed Gust Speed Precip Events Conditions
12:53 AM -2.0 °F -27.3 °F -7.1 °F 79% 29.96 in 2.5 mi ENE 26.5 mph - N/A Snow Blowing Snow
1:53 AM -2.9 °F -28.6 °F -7.1 °F 82% 29.95 in 2.5 mi ENE 26.5 mph - N/A Snow Blowing Snow
2:53 AM -2.9 °F -29.0 °F -7.1 °F 82% 29.93 in 3.0 mi ENE 27.6 mph - N/A Snow Blowing Snow
3:53 AM -2.9 °F -26.7 °F -7.1 °F 82% 29.93 in 4.0 mi ENE 21.9 mph - N/A Snow Blowing Snow
4:53 AM -2.9 °F -27.2 °F -7.1 °F 82% 29.91 in 3.0 mi ENE 23.0 mph - N/A Snow Blowing Snow
5:36 AM -2.2 °F -27.1 °F -7.6 °F 78% 29.90 in 2.5 mi ENE 25.3 mph - N/A Snow Blowing Snow
5:53 AM -2.9 °F -27.6 °F -8.0 °F 79% 29.91 in 2.5 mi ENE 24.2 mph - N/A Snow Blowing Snow
6:48 AM -2.2 °F -27.1 °F -7.6 °F 78% 29.89 in 1.8 mi ENE 25.3 mph - N/A Snow Blowing Snow
6:53 AM -2.9 °F -29.4 °F -7.1 °F 82% 29.89 in 1.5 mi ENE 28.8 mph - N/A Snow Blowing Snow
7:53 AM -2.9 °F -29.0 °F -7.1 °F 82% 29.88 in 1.2 mi ENE 27.6 mph - N/A Snow Blowing Snow
8:53 AM -2.9 °F -29.4 °F -7.1 °F 82% 29.86 in 1.5 mi ENE 28.8 mph - N/A Snow Blowing Snow
9:53 AM -2.0 °F -27.8 °F -7.1 °F 79% 29.87 in 1.8 mi ENE 27.6 mph 34.5 mph N/A Snow Blowing Snow
10:53 AM -2.0 °F -26.4 °F -6.0 °F 83% 29.87 in 1.8 mi ENE 24.2 mph - N/A Snow Blowing Snow
11:53 AM -0.9 °F -25.5 °F -5.1 °F 83% 29.89 in 1.8 mi ENE 25.3 mph 31.1 mph N/A Snow Blowing Snow
12:53 PM -0.9 °F -24.5 °F -5.1 °F 83% 29.90 in 1.8 mi ENE 23.0 mph - N/A Snow Blowing Snow
1:53 PM -0.0 °F -24.3 °F -5.1 °F 79% 29.93 in 1.8 mi ENE 25.3 mph - N/A Snow Blowing Snow
2:53 PM -0.9 °F -24.5 °F -5.1 °F 83% 29.94 in 1.8 mi ENE 23.0 mph - N/A Snow Blowing Snow
3:06 PM -0.4 °F -23.8 °F -5.8 °F 78% 29.95 in 2.0 mi ENE 23.0 mph - N/A Snow Blowing Snow
3:41 PM -0.4 °F -23.3 °F -5.8 °F 78% 29.96 in 6.0 mi ENE 21.9 mph - N/A Snow Blowing Snow
3:53 PM -2.0 °F -25.5 °F -6.0 °F 83% 29.97 in 6.0 mi ENE 21.9 mph - N/A Snow Blowing Snow
4:53 PM -2.0 °F -25.5 °F -6.0 °F 83% 30.02 in 6.0 mi ENE 21.9 mph - N/A Snow Blowing Snow
5:53 PM -2.0 °F -24.4 °F -7.1 °F 79% 30.06 in 6.0 mi ENE 19.6 mph - N/A Snow Blowing Snow
6:53 PM -2.0 °F -26.0 °F -6.0 °F 83% 30.07 in 6.0 mi ENE 23.0 mph - N/A Snow Blowing Snow
7:53 PM -2.0 °F -26.0 °F -6.0 °F 83% 30.10 in 6.0 mi ENE 23.0 mph - N/A Snow Blowing Snow
8:53 PM -0.9 °F -23.0 °F -6.0 °F 79% 30.13 in 6.0 mi ENE 19.6 mph - N/A Snow Blowing Snow
9:53 PM -0.9 °F -25.0 °F -5.1 °F 83% 30.15 in 1.5 mi ENE 24.2 mph - 0.00 in Snow Light Snow
10:53 PM -0.0 °F -25.1 °F -4.0 °F 83% 30.15 in 0.5 mi ENE 27.6 mph - 0.00 in Fog , Snow Blowing Snow
11:53 PM -0.0 °F -23.8 °F -4.0 °F 83% 30.16 in 1.0 mi East 24.2 mph - N/A Snow Blowing Snow